This is the latest recevied weather packets stored in our database for station/object IW2NIA-3. If no packets are shown the sender has not sent any weather packets the latest 1 day(s).
| Time | Temp. | Humidity | Pressure | Rain* | Wind** | Luminosity | Snow |
|---|---|---|---|---|---|---|---|
| 1778083422 | 13.89° C | 91% | 1006.1 hPa | 0 mm | - | - | - |
| 1778081619 | 13.33° C | 94% | 1006.3 hPa | 0 mm | - | - | - |
| 1778078915 | 13.33° C | 94% | 1006.7 hPa | 14.48 mm | - | - | - |
| 1778077122 | 12.78° C | 93% | 1007 hPa | 11.68 mm | - | - | - |
| 1778076222 | 13.89° C | 93% | 1006.9 hPa | 11.94 mm | - | - | - |
| 1778075317 | 13.33° C | 93% | 1007.1 hPa | 10.67 mm | - | - | - |
| 1778074414 | 13.33° C | 93% | 1006.8 hPa | 10.67 mm | - | - | - |
| 1778073511 | 13.33° C | 92% | 1006.9 hPa | 10.41 mm | - | - | - |
| 1778072605 | 15° C | 92% | 1007 hPa | 3.81 mm | - | - | - |
| 1778071724 | 15.56° C | 91% | 1006.6 hPa | 1.27 mm | - | - | - |
| 1778067212 | 15.56° C | 93% | 1006.6 hPa | 0.25 mm | - | - | - |
| 1778066305 | 15° C | 93% | 1006.9 hPa | 0 mm | - | - | - |
| 1778063622 | 15° C | 97% | 1007.2 hPa | 0 mm | - | - | - |
| 1778062718 | 13.89° C | 97% | 1007.2 hPa | 0 mm | - | - | - |
| 1778060008 | 13.89° C | 97% | 1007.2 hPa | 0 mm | - | - | - |
| 1778059120 | 13.33° C | 97% | 1007.3 hPa | 0.51 mm | - | - | - |
| 1778057321 | 13.33° C | 97% | 1006.9 hPa | 1.78 mm | - | - | - |
| 1778056413 | 13.33° C | 97% | 1007.2 hPa | 1.78 mm | - | - | - |
| 1778054610 | 12.78° C | 97% | 1007.4 hPa | 1.52 mm | - | - | - |
| 1778053705 | 13.33° C | 97% | 1007.4 hPa | 1.52 mm | - | - | - |
| 1778052818 | 13.33° C | 97% | 1007.5 hPa | 1.52 mm | - | - | - |
| 1778051912 | 13.33° C | 97% | 1007.4 hPa | 1.02 mm | - | - | - |
| 1778050125 | 12.78° C | 97% | 1007.7 hPa | 0 mm | - | - | - |
| 1778046526 | 12.78° C | 97% | 1007.7 hPa | 0.51 mm | - | - | - |
| 1778045618 | 12.78° C | 97% | 1007.8 hPa | 0.51 mm | - | - | - |
* Rain latest hour (hover to see other rain measurements)
** Current wind speed in m/s (hover to see current wind gust speed)